Location: Oulou
(10.7667°N, 12.5167°W)
Time: 23:26:21
(UTC+00:00)

Sylda 5 - Pass Details

Date: 20 September 2019
Orbit: 572 x 35530 km, 6.6° (Epoch: 15 October)

Event Time Altitude Azimuth Distance (km) Brightness Sun altitude
Rises 18:57:42 0° 268° (W) 5,496 10.0 -3.3°
Reaches altitude 10° 19:02:44 10° 260° (W) 3,045 7.3 -4.5°
Maximum altitude 19:07:52 37° 191° (S) 985 3.2 -5.8°
Drops below altitude 10° 19:11:01 10° 120° (ESE) 1,864 4.0 -6.6°
Enters shadow 19:11:45 - 115° (ESE) 2,220 4.3 -6.8°
